Location: Asheville, NC
(35.6000°N, 82.5500°W)
Time: 16:39:33
(UTC-05:00)

OTV 5 (USA 277) - Pass Details

Date: 07 January 2018
Orbit: 404 x 417 km, 43.0° (Epoch: 07 September)

Event Time Altitude Azimuth Distance (km) Brightness Sun altitude
Exits shadow 06:41:46 16° 319° (NW) 1,134 ? -11.8°
Maximum altitude 06:43:52 33° 16° (NNE) 704 ? -11.4°
Drops below altitude 10° 06:46:53 10° 83° (E) 1,450 ? -10.8°
Sets 06:49:06 0° 93° (E) 2,309 ? -10.4°
